Location: ??????
(41.3794°N, 22.5014°E)
Time: 07:47:00
(UTC+00:00)

DMSP B5D1-3 - Pass Details

Date: 30 November 2020
Orbit: 766 x 781 km, 98.5° (Epoch: 17 January)

Event Time Altitude Azimuth Distance (km) Brightness Sun altitude
Exits shadow 17:27:34 82° 167° (SSE) 790 4.4 -26.8°
Drops below altitude 10° 17:32:28 10° 193° (SSW) 2,314 7.2 -27.7°
Sets 17:34:45 0° 194° (SSW) 3,235 8.0 -28.2°
